Theta_e
333 334 332 331 329 328 329 331 336 337 337 337 338 337 337 336 335 332 332 330 329 328
329 328 329 327 329 328 331 334 336 337 337 338 339 338 336 335 334 332 331 330 329 329
325 328 327 325 327 330 332 336 336 337 338 338 338 337 336 335 333 331 331 330 328 326
320 324 325 327 329 331 333 335 336 337 337 338 337 337 335 333 332 330 329 328 327 325
321 325 327 329 331 333 334 336 336 336 337 337 336 335 333 331 331 330 327 326 325 324
323 327 328 330 331 333 334 335 336 336 336 335 335 334 333 333 330 327 327 326 325 325
325 329 330 331 332 334 335 335 335 335 336 336 334 334 332 329 328 327 326 325 326 325
329 331 332 333 333 335 335 336 336 335 336 336 335 331 328 328 326 326 325 324 324 326
332 332 333 332 334 335 335 334 334 334 333 331 328 309 312 322 325 324 324 323 324 325
332 332 333 334 335 333 331 332 330 328 327 323 320 303 306 311 325 324 323 323 323 324
333 332 332 332 330 329 328 326 325 324 322 320 313 301 302 307 323 323 323 323 323 324
331 330 328 326 326 325 324 322 322 322 319 318 313 300 301 315 322 321 321 322 324 324
329 327 326 326 325 324 323 320 320 319 320 313 314 299 300 314 320 319 319 320 319 306
328 326 326 326 324 321 319 318 317 317 319 319 316 308 299 304 321 319 319 319 316 314
Wind_Speed
12 8 9 10 9 7 7 6 7 7 7 8 9 7 8 7 7 8 6 6 4 3
10 10 10 10 8 7 5 6 9 9 9 9 9 10 9 6 7 7 6 6 6 4
12 11 11 7 9 8 6 8 9 10 10 10 9 9 9 6 6 7 5 4 6 3
9 10 10 10 6 6 7 9 10 11 11 11 10 8 7 6 7 7 6 5 6 6
8 8 10 10 9 9 10 10 11 11 11 10 9 9 8 8 8 9 8 7 7 7
10 11 12 11 11 11 12 11 11 12 11 10 9 9 9 10 9 8 8 7 7 7
12 13 12 11 12 12 12 13 11 11 11 10 10 9 9 8 6 5 5 5 6 7
9 10 11 13 14 13 12 11 12 11 9 10 10 7 8 7 6 6 5 4 5 6
12 13 15 14 14 13 12 12 12 11 11 10 5 12 11 9 6 5 5 5 4 4
12 14 14 14 14 13 13 13 11 10 9 7 6 9 12 11 6 5 5 5 5 4
15 14 14 13 13 12 11 13 11 10 9 9 5 9 12 10 7 5 5 4 5 4
15 15 15 14 13 12 12 10 9 9 11 11 7 7 11 10 7 6 5 3 4 4
14 16 15 15 14 10 11 10 9 10 9 9 9 7 9 9 6 6 4 4 4 5
13 15 16 14 13 13 12 11 11 10 8 7 7 6 8 10 6 6 5 5 3 3
Wind_Direction
219 223 231 212 200 189 191 189 136 178 179 183 178 172 170 178 183 171 185 171 160 175
220 197 205 212 201 187 158 146 158 173 176 174 172 168 164 172 176 167 170 185 169 172
223 210 208 183 191 178 158 143 155 168 165 165 169 166 169 169 146 151 160 156 163 154
213 201 186 187 183 165 139 151 166 167 160 159 161 162 160 142 143 148 150 155 170 171
207 183 183 179 171 159 167 166 164 162 152 152 156 153 158 149 161 160 164 170 170 173
194 188 187 177 165 164 159 158 155 152 151 153 160 160 160 155 164 165 170 170 175 174
192 190 177 161 154 160 156 150 153 152 152 159 160 164 159 148 145 150 168 177 177 176
176 163 147 153 151 153 148 149 144 143 147 152 157 158 150 145 148 161 167 174 188 193
156 162 155 148 148 146 139 140 142 148 146 147 142 147 135 142 150 155 163 186 202 203
149 155 147 146 141 139 141 138 137 131 124 109 123 139 137 128 134 152 155 164 171 170
152 141 143 140 138 135 138 131 131 127 116 123 108 119 124 121 125 124 140 154 167 165
146 141 142 136 132 130 117 118 108 124 123 128 118 142 125 111 115 122 124 141 159 156
144 140 139 133 133 110 119 117 115 104 111 118 129 121 119 118 121 123 123 102 99 58
136 132 128 123 117 116 113 108 105 105 110 110 122 132 133 128 132 138 131 131 113 86